Volver al catálogo

STARLINK-30989

ActivoComunicacionesVLEO
NORAD 58510·PAYLOAD·🇺🇸 United States

Lanzado Dec 7, 2023 desde Cape Canaveral Space Force Station

Loading…

Próximos Pases (próximas 24 horas)

TLE

ActualizadoSource: CelesTrak SupGP

Época: Sep 14, 2026, 21:16 UTC

1 58510C 23191C   26257.88659722 -.00032471  00000+0 -11764-2 0  2570
2 58510  42.9994 115.2184 0001310 270.8453  81.8920 15.27587534    10

Sigue STARLINK-30989 en tiempo real con AllMySat

Download on the App Store